Location: Frizzleburg
(41.0764°N, 80.4548°W)
Time: 08:11:15
(UTC+00:00)

STARLINK-75 - Pass Details

Date: 17 November 2019
Orbit: 529 x 530 km, 53.0° (Epoch: 15 December)

Event Time Altitude Azimuth Distance (km) Brightness Sun altitude
Exits shadow 10:07:22 40° 176° (S) 782 4.4 -23.3°
Maximum altitude 10:08:15 48° 136° (SE) 689 4.3 -23.2°
Drops below altitude 10° 10:12:07 10° 61° (ENE) 1,771 6.9 -22.4°
Enters shadow 11:12:14 -63° 236° (SW) 11,907 10.3 -11.3°
